www.pogodaiklimat.ru

Погода и климат >> Архив погоды >> Греция >> Триполис


ПОГОДА в Триполисе

  • Прогноз погоды в Триполисе
  • Монитор погоды в Триполисе

АРХИВ ПОГОДЫ в Триполисе

Время (UTC), дата Ветер
(напр.,м/с)
 
Видим.   Явления Облачность Т
(С)
Тd
(С)
f
(%)
Тe
(С)
Тes
(С)
Комфортность P
(гПа)
Po
(гПа)
Тmin
(С)
Tmax
(С)
R
(мм)
R24
(мм)
S
(см)
09 11.06 ЮВ 2
{5}
10 км 5/4 600 м
[Cu med, cong Ac cuf]
+26.8 +9.6 34 +27 +37 жарко 1009.9 937.8
12 11.06 ЮВ 6
{12}
10 км сильн. гроза, ливневой дождь 10/6 480 м
[Cb cap As op]
+21.4 +14.7 66 +24 +25 комфорт 1010.6 937.2 4
15 11.06 нст 2
{12}
н/о осадки н/о +15.2 +15.1 99 +15 +15 1015.4 940.1
18 11.06 нст 2
{6}
н/о в посл. час осадки н/о +15.4 +15.3 99 +15 +15 1014.9 939.7 +27.5 38
21 11.06 нст 1
{3}
н/о {осадки} н/о +14.1 +14.0 99 +15 +15 1015.8 940.2
00 12.06 штиль 0
{3}
н/о {осадки} н/о +13.2 +13.2 100 +13 +13 1015.0 939.2 0.0
03 12.06 нст 1
{2}
н/о в посл. час осадки н/о +12.9 +12.9 100 +14 +14 1015.0 939.1
06 12.06 штиль 0
{2}
2000 м дымка {туман} 3/3 600 м
[Cu hum]
+15.2 +15.1 99 +15 +21 1015.8 940.5 +12.4 222
09 12.06 штиль 0
{3}
10 км 4/3 600 м
[Cu hum Ci fib]
+25.4 +13.3 47 +27 +44 жарко 1013.3 940.6
12 12.06 ЮЗ 3
{5}
10 км 5/3 750 м
[Cu med, cong Ac cuf]
+28.6 +12.9 38 +30 +39 жарко 1011.7 939.9
15 12.06 СЗ 7
{11}
н/о н/о +28.9 +14.0 40 +31 +31 жарко 1010.7 939.1
18 12.06 нст 1
{8}
н/о н/о +24.2 +13.8 52 +26 +26 жарко 1013.0 940.1 +29.9
21 12.06
{4}
н/о н/о +19.0 +14.9 77 1016.3 941.9
00 13.06 нст 1
{4}
н/о н/о +16.6 +14.1 85 +17 +17 1016.8 941.8
03 13.06 штиль 0
{3}
н/о н/о +14.6 +13.9 96 +14 +14 1017.5 941.9
06 13.06 штиль 0
{2}
10 км 5/0
[Ci fib]
+21.4 +14.8 66 +24 +32 комфорт 1017.0 943.1 +14.3 236
09 13.06 В 2
{4}
10 км 1/1 600 м
[Cu hum]
+29.6 +13.9 38 +31 +48 жарко 1014.9 943.1
12 13.06 В 4
{7}
10 км 4/4 600 м
[Cu med, cong]
+31.2 +13.1 33 +32 +40 жарко 1013.5 942.1
15 13.06 Ю 5
{8}
н/о осадки н/о +28.0 +16.7 50 +32 +32 душно 1013.9 941.8
18 13.06 ЮВ 3
{6}
10 км {гроза} 8/0 2000 м
[Ac cuf Ci fib]
+23.8 +17.3 67 +28 +28 душно 1015.5 942.3 +31.9 3
21 13.06 штиль 0
{3}
н/о н/о +19.9 +18.0 89 +23 +23 комфорт 1017.7 943.4
00 14.06 штиль 0
{2}
н/о н/о +17.6 +17.3 98 +18 +18 1017.6 942.7
03 14.06 штиль 0
{1}
н/о н/о +16.1 +16.0 99 +16 +16 1017.6 942.4
06 14.06 штиль 0
{2}
9000 м дымка ясно +21.8 +17.4 76 +26 +34 душно 1016.6 942.8 +15.6 246
09 14.06 Ю 2
{4}
10 км ясно +30.2 +15.3 40 +33 +51 опасность
солнечного
удара
1014.0 942.4
12 14.06 З 7
{10}
10 км дождь 9/9 600 м
[Cb cap]
+22.0 +16.5 71 +26 +27 душно 1015.4 941.8 0.0
15 14.06 В 3
{12}
н/о {осадки} н/о +20.2 +18.0 87 +24 +24 комфорт 1016.0 941.9
18 14.06 штиль 0
{4}
10 км {гроза} 8/0 2000 м
[Ac und Ci fib]
+20.2 +18.6 91 +23 +23 комфорт 1015.7 941.6 +32.3 22
21 14.06
{2}
н/о н/о +17.3 +16.8 97 1016.4 941.6
00 15.06 штиль 0
{2}
н/о н/о +16.2 +16.0 99 +16 +16 1016.2 941.1
03 15.06 СЗ 1
{3}
н/о н/о +15.3 +15.3 100 +16 +16 1016.3 941.0
06 15.06 штиль 0
{3}
9000 м дымка ясно +21.4 +17.4 78 +25 +34 комфорт 1014.7 940.9 +14.7 226
09 15.06 С 4
{7}
10 км 4/4 600 м
[Cu med, cong]
+28.2 +11.8 36 +29 +37 жарко 1012.3 940.3
12 15.06 ЮВ 3
{6}
10 км 6/6 600 м
[Cu med, cong]
+30.0 +12.6 34 +31 +37 жарко 1010.3 938.9
15 15.06 ЮЗ 7
{11}
н/о н/о +26.0 +14.4 49 +28 +28 жарко 1011.0 938.6
18 15.06 штиль 0
{10}
10 км слаб. дождь 8/8 600 м
[Cb cap]
+21.8 +17.0 74 +26 +26 душно 1012.7 939.2 +30.8 0.0
21 15.06 нст 1
{2}
н/о {осадки} н/о +18.5 +17.2 92 +21 +21 комфорт 1014.1 939.8
00 16.06 СЗ 1
{2}
н/о {осадки} н/о +16.0 +15.6 97 +17 +17 1014.5 939.5 0.0
03 16.06 ЮЗ 1
{2}
н/о н/о +15.0 +14.8 99 +15 +15 1014.5 939.3
06 16.06 нст 1
{3}
н/о н/о +21.7 +15.2 67 +25 +25 комфорт 1013.0 939.5 +14.6 0.0
09 16.06 С 3
{7}
н/о н/о +28.0 +10.4 33 +28 +28 жарко 1011.5 939.6
12 16.06 ЮВ 4
{7}
н/о н/о +29.3 +9.3 29 +29 +29 жарко 1010.1 938.6
15 16.06 ЮЗ 4
{9}
н/о осадки н/о +23.9 +15.9 61 +27 +27 жарко 1011.1 938.3
18 16.06 З 4
{10}
н/о осадки н/о +16.3 +14.3 88 +16 +16 1013.9 939.0 +31.2 6
21 16.06
{4}
н/о н/о +15.9 +15.0 94 1015.3 940.2
00 17.06 ЮЗ 1
{2}
н/о н/о +14.5 +14.3 99 +15 +15 1014.0 938.6
03 17.06 Ю 1
{2}
н/о н/о +13.3 +13.3 100 +14 +14 1014.2 938.6
09 17.06 нст 1
{3}
н/о {осадки} н/о +23.9 +13.8 53 +26 +26 жарко 1013.0 940.0
12 17.06 С 3
{7}
н/о {осадки} н/о +26.9 +11.0 37 +28 +28 жарко 1011.1 939.0 0.0
15 17.06 З 3
{8}
н/о н/о +24.8 +12.1 45 +26 +26 жарко 1010.9 938.3
18 17.06 нст 1
{6}
н/о {осадки} н/о +20.4 +15.9 75 +24 +24 комфорт 1013.6 939.7 +28.1 0.0
21 17.06
{3}
н/о н/о +17.3 +15.8 91 1015.2 940.4
00 18.06 Ю 1
{3}
н/о н/о +15.5 +15.0 97 +16 +16 1015.4 940.2
03 18.06 ЮВ 1
{2}
н/о н/о +14.2 +14.1 99 +15 +15 1015.9 940.3
06 18.06 штиль 0
{2}
10 км 1/0
[Ac lent]
+19.0 +15.7 81 +20 +28 1015.2 940.9 +13.6

 

Местоположение метеостанции Триполис (Греция): широта 37.53 долгота 22.40 высота над уровнем моря 652 м.

В архиве по умолчанию представлена погода в Триполисе за последнюю неделю. Архивные данные за месяц целиком и за предыдущие месяцы, начиная с января 2011 года, Вы можете получить, выбрав интересующий диапазон дат из раскрывающегося списка и нажав кнопку "Ввод!".


*Определитесь, кто Вы:
робот инопланетянин человек

Внимание! Время в таблицах - всемирное. Для получения местного времени необходимо прибавить поправку, которая равна 2 ч.

Смотрите также архив погоды в соседних городах и на ближайших метеорологических станциях:

Погода в Астросе (Греция) (31 км)
Погода в Аргосе (Греция) (34 км)
Погода в Каламате (Греция) (61 км)
Погода в Мефони (Греция) (100 км)
Погода в Андравиде (Греция) (108 км)
Погода в Элефисисе (Греция) (118 км)
Погода в Афинах (Греция) (124 км)
Погода в Татое (Греция) (137 км)
Погода в Элефтериос Венизелос (Греция) (141 км)
Погода на Китире (Греция) (150 км)

Пояснения к столбцам:

Ветер - указаны скорость ветра в м/с - средняя за 10 мин, порывы в срок и между сроками (в фигурных скобках) и направление, откуда дует ветер: С - северный, СВ - северо-восточный, В - восточный, ЮВ - юго-восточный, Ю - южный, ЮЗ - юго-западный, З - западный, СЗ - северо-западный.
Видимость - горизонтальная дальность видимости в метрах или километрах. При видимости от 1 до 10 км при отсутствии осадков обычно наблюдается дымка, при ухудшении видимости до 1 км и менее - туман. В сухую погоду видимость может ухудшаться дымом, пылью или мглою.
Явления - указаны атмосферные явления, наблюдавшиеся в срок или в последний час перед сроком; фигурными скобками обозначены явления, наблюдавшиеся между сроками (за 1-3 часа до срока); квадратными скобками обозначены град или гололедные отложения с указанием их диаметра в мм.
Облачность - указаны через наклонную черту общая и нижняя облачность в баллах и высота нижней границы облаков в метрах; квадратными скобками обозначены формы облаков: Ci - перистые, Cs - перисто-слоистые, Cc - перисто-кучевые, Ac - высококучевые, As - высокослоистые, Sc - слоисто-кучевые, Ns - слоисто-дождевые, Cu - кучевые, Cb - кучево-дождевые. Подробнее классификацию облаков см. в Атласе облаков (PDF).
T - Температура воздуха - температура, измеренная на высоте 2 м над землей.
Td - Температура точки росы - температура, при понижении до которой содержащийся в воздухе водяной пар достигнет насыщения.
f - Относительная влажность воздуха - влажноcть воздуха, измеренная на высоте 2 м над землей.
Te - Эффективная температура - температура, которую ощущает одетый по сезону человек в тени. Характеристика душности погоды. При расчете учитывается влияние влажности воздуха и скорости ветра на теплоощущения человека.
Tes - Эффективная температура на солнце - температура, которую ощущает человек, с поправкой на солнечный нагрев. Характеристика знойности погоды. Зависит от высоты солнца над горизонтом, облачности и скорости ветра. Ночью, в пасмурную погоду, а также при ветре 12 м/с и более поправка равна нулю.
P - Атмосферное давление - приведенное к уровню моря атмосферное давление.
Po - Атмосферное давление - измеренное на уровне метеостанции атмосферное давление.
Tmin - Минимальная температура - минимум температуры воздуха на высоте 2 м над землей.
Tmax - Максимальная температура - максимум температуры воздуха на высоте 2 м над землей.
R - Количество осадков - Количество выпавших осадков за период времени, мм. При наведении курсора мыши на число - период времени, за который выпало указанное количество осадков.
R24 - Количество осадков - Количество выпавших осадков за 24 часа, мм.
S - Снежный покров - Высота снежного покрова, см. При наведении курсора мыши на число - состояние снежного покрова и степень покрытия местности в баллах.